User: anonymous
Location: Unspecified
(0.0000°N, 0.0000°E)
Time: 21:58:27
(UTC+02:00)
Language:

ASC 2 Rocket - Orbit

View from above orbital plane
View from above orbital plane
View from above satellite
View from above satellite

Ground track
Ground track

The orbit data is extracted from the following two-line orbital elements,

1 21228U 91028B   14204.44705225  .00000326  00000-0  68347-4 0  3408
2 21228 023.9983 231.5822 1145331 263.2337 268.6232 12.52783944 64743
Epoch (UTC): 23 July 2014 10:43:45
Eccentricity: 0.1145331
inclination: 23.9983°
perigee height: 556 km
apogee height: 2350 km
right ascension of ascending node: 231.5822°
argument of perigee: 263.2337°
revolutions per day: 12.52783944
mean anomaly at epoch: 268.6232°
orbit number at epoch: 6474

The dashed part of the orbit path shows where the satellite is in the earth's shadow,  

DLR